Laramie, WY

3:27 PM MST on February 07, 2016 (GMT -0700)
Laramie Regional

Weather History for KLAR - September, 2012

Change the Weather History Date:

Wednesday, September 5, 2012

  Actual Average Record
Temperature  
Mean Temperature 58 °F 57 °F  
Max Temperature 79 °F 73 °F 90 °F (1978)
Min Temperature 36 °F 42 °F 30 °F (1956)
Degree Days  
Heating Degree Days 7 8  
Month to date heating degree days 12 35  
Since 1 July heating degree days 69 207  
Cooling Degree Days 0 0  
Month to date cooling degree days 0 0  
Year to date cooling degree days 211 66  
Growing Degree Days 8 (Base 50)    
Moisture  
Dew Point 18 °F    
Average Humidity 30    
Maximum Humidity 52    
Minimum Humidity 7    
Precipitation  
Precipitation 0.00 in 0.04 in 0.74 in (1991)
Month to date precipitation T 0.18  
Year to date precipitation 4.42 8.33  
Sea Level Pressure  
Sea Level Pressure 29.95 in    
Wind  
Wind Speed 12 mph (WSW)    
Max Wind Speed 29 mph    
Max Gust Speed 37 mph    
Visibility 10 miles    
Events      
T = Trace of Precipitation, MM = Missing Value Source: NWS Daily Summary

Daily Weather History Graph

Daily Weather History Graph

Search for Another Location

Airport or City:

Trip Planner

Search our weather history database for the weather conditions in past years. The results will help you decide how hot, cold, wet, or windy it might be!

Date:

Astronomy

Sep. 05, 2012 Rise Set
Actual Time 6:33 AM MDT 7:27 PM MDT
Civil Twilight 6:05 AM MDT 7:56 PM MDT
Nautical Twilight 5:31 AM MDT 8:29 PM MDT
Astronomical Twilight 4:57 AM MDT 9:04 PM MDT
Moon 9:55 PM MDT (9/5) 11:44 AM MDT (9/5)
Length of Visible Light 13h 50m
Length of Day
12h 54m
Waning Gibbous, 75% of the Moon is Illuminated
Sep 5
Waning Gibbous
Sep 8
Last Quarter
Sep 15
New
Sep 22
First Quarter
Sep 29
Full

Hourly Weather History & Observations

Time (MDT) Temp. Windchill Dew Point Humidity Pressure Visibility Wind Dir Wind Speed Gust Speed Precip Events Conditions
12:53 AM 55.0 °F - 19.0 °F 24% 29.94 in 10.0 mi Variable 3.5 mph - N/A   Clear
1:53 AM 52.0 °F - 19.9 °F 28% 29.95 in 10.0 mi NE 6.9 mph - N/A   Clear
2:53 AM 50.0 °F - 21.0 °F 32% 29.97 in 10.0 mi North 6.9 mph - N/A   Clear
3:53 AM 44.1 °F 40.8 °F 19.0 °F 37% 30.00 in 10.0 mi WNW 5.8 mph - N/A   Clear
4:53 AM 39.9 °F 34.5 °F 21.0 °F 47% 30.02 in 10.0 mi South 8.1 mph - N/A   Clear
5:53 AM 37.9 °F 33.5 °F 21.0 °F 51% 30.03 in 10.0 mi South 5.8 mph - N/A   Clear
6:53 AM 37.0 °F 31.0 °F 21.0 °F 52% 30.04 in 10.0 mi South 8.1 mph - N/A   Clear
7:53 AM 48.9 °F - 21.9 °F 35% 30.02 in 10.0 mi South 9.2 mph - N/A   Clear
8:53 AM 57.9 °F - 24.1 °F 27% 30.00 in 10.0 mi South 12.7 mph - N/A   Clear
9:53 AM 66.0 °F - 23.0 °F 20% 29.97 in 10.0 mi SSW 12.7 mph - N/A   Clear
10:53 AM 71.1 °F - 19.9 °F 14% 29.94 in 10.0 mi West 12.7 mph - N/A   Clear
11:53 AM 75.0 °F - 14.0 °F 10% 29.91 in 10.0 mi West 9.2 mph 20.7 mph N/A   Clear
12:53 PM 77.0 °F - 10.9 °F 8% 29.88 in 10.0 mi West 25.3 mph 29.9 mph N/A   Clear
1:53 PM 78.1 °F - 10.0 °F 7% 29.88 in 10.0 mi WNW 17.3 mph 34.5 mph N/A   Clear
2:53 PM 78.1 °F - 12.9 °F 8% 29.88 in 10.0 mi WNW 17.3 mph 28.8 mph N/A   Clear
3:53 PM 78.1 °F - 14.0 °F 9% 29.89 in 10.0 mi WSW 25.3 mph 36.8 mph N/A   Clear
4:53 PM 77.0 °F - 14.0 °F 9% 29.90 in 10.0 mi West 17.3 mph 28.8 mph N/A   Clear
5:53 PM 75.2 °F - 15.8 °F 11% 30.18 in 10.0 mi WSW 13.8 mph 23.0 mph N/A   Clear
6:53 PM 73.0 °F - 18.0 °F 12% 29.93 in 10.0 mi WSW 13.8 mph - N/A   Clear
7:53 PM 64.9 °F - 18.0 °F 16% 29.92 in 10.0 mi WSW 10.4 mph - N/A   Clear
8:53 PM 57.9 °F - 17.1 °F 20% 29.92 in 10.0 mi West 9.2 mph - N/A   Clear
9:53 PM 54.0 °F - 18.0 °F 24% 29.89 in 10.0 mi SW 4.6 mph - N/A   Clear
10:53 PM 52.0 °F - 19.0 °F 27% 29.89 in 10.0 mi WSW 9.2 mph - N/A   Clear
11:53 PM 51.1 °F - 17.1 °F 26% 29.89 in 10.0 mi West 9.2 mph - N/A   Clear